Regional Weather Roundup
Issued by NWS Green Bay, WI

Home | Current Version | Previous Version | Graphics & Text | Print | Product List | Glossary Off
Versions: 1 2 3 4 5 6 7 8 9 10 11 12 13 14 15 16 17 18 19 20 21 22 23 24 25 26 27 28 29 30 31 32 33 34 35 36 37 38 39 40 41 42 43 44 45 46 47 48 49 50

000
ASUS43 KGRB 250400
RWRGRB

NORTH-CENTRAL AND NORTHEAST WISCONSIN REGIONAL WEATHER ROUNDUP
NATIONAL WEATHER SERVICE GREEN BAY WI
1100 PM CDT FRI MAR 24 2017

WIZ005-009-010>012-018-019-250500-
NORTH CENTRAL WISCONSIN

CITY           SKY/WX    TMP DP  RH WIND       PRES   REMARKS
IRONWOOD       CLOUDY    33  31  92 E6        30.23S
MANITOWISH WTR NOT AVBL
ARBOR VITAE    NOT AVBL
EAGLE RIVER    NOT AVBL
LAND O LAKES   NOT AVBL
RHINELANDER    CLOUDY    35  32  88 VRB7      30.18F
PHILLIPS       NOT AVBL
ANTIGO         NOT AVBL
TOMAHAWK       NOT AVBL
MERRILL        NOT AVBL
$$

WIZ013-073-250500-
NORTHEAST WISCONSIN

CITY           SKY/WX    TMP DP  RH WIND       PRES   REMARKS
IRON MOUNTAIN  CLOUDY    34  29  82 NE6       30.20R
MARINETTE        N/A    N/A N/A N/A MISG        N/A
$$

WIZ017-030-035>037-045-250500-
CENTRAL WISCONSIN

CITY           SKY/WX    TMP DP  RH WIND       PRES   REMARKS
MEDFORD        NOT AVBL
WAUSAU         CLOUDY    35  32  88 NE5       30.14F
MOSINEE        NOT AVBL
MARSHFIELD     CLOUDY    36  33  89 E10       30.13S
WISC RAPIDS    LGT RAIN  37  36  96 NE9       30.17R
STEVENS POINT  NOT AVBL
WAUPACA        NOT AVBL
SHAWANO        NOT AVBL
CLINTONVILLE   NOT AVBL
WAUTOMA        LGT RAIN  36  35  96 E7        30.17S
$$

WIZ038-039-048-051-250500-
FOX VALLEY

CITY           SKY/WX    TMP DP  RH WIND       PRES   REMARKS
NWS GREEN BAY  LGT RAIN  36  36 100 NE20G25   30.18R FOG
APPLETON       LGT RAIN  36  36 100 NE14G21   30.15R
OSHKOSH        LGT RAIN  36  34  92 NE13      30.17R FOG
FOND DU LAC    CLOUDY    37  33  85 NE13      30.16R
$$

WIZ022-050-052-250500-
EAST CENTRAL WISCONSIN

CITY           SKY/WX    TMP DP  RH WIND       PRES   REMARKS
EPHRAIM        NOT AVBL
WASHINGTON ISL NOT AVBL
STURGEON BAY   LGT RAIN  34  32  92 N13       30.18R
MANITOWOC      NOT AVBL
SHEBOYGAN      CLOUDY    36  33  89 NE17G23   30.16R
$$

LMZ563-521-522-541>543-250500-
LAKESHORE

STATION/POSITION TIME  TEMP    WIND        PRES    VSBY  WAVE
                       AIR SEA DIR/SP/G                  HT/PER
                 (UTC) (F)     (DEG/KT/KT) (MB)    (MI)  (FT/S)
SHEBOYGAN LKSHOR 0300   36      20/ 17/ 18 1020.8R
KEWAUNEE LKSHORE 0330   36      20/ 12/ 16 1020.8R
NORTHPORT PIER   0340   35     360/ 10/ 12 1023.0R
SISTER BAY LKSHO 0306   35      20/  9/ 14   N/A
CHAMBERS ISLAND  0340   34     350/ 12/ 16 1022.7R
MENOMINEE LKSHOR 0330   35     350/ 18/ 20 1022.2R
$$




USA.gov is the U.S. government's official web portal to all federal, state and local government web resources and services.